World > North America > United States > Indiana

Hourly Sims, IN Regional Weather

Feedback E-mail the Weather

Quick WX

Sims, IN Weather Maps

°F °C°F °C
Sims Weather Map
UTC Time: 7/7/2022, 07:19
Your Time:

Sims, IN Regional Weather

Expires:202207070800;;882999
ASUS43 KIND 070710
RWRIN 

WEATHER ROUNDUP FOR INDIANA
NATIONAL WEATHER SERVICE INDIANAPOLIS IN
300 AM EDT THU JUL 07 2022

NOTE: "FAIR" INDICATES FEW OR NO CLOUDS BELOW 12,000 FEET WITH NO
SIGNIFICANT WEATHER AND/OR OBSTRUCTIONS TO VISIBILITY.

* - STATION DOES NOT REPORT WEATHER SUCH AS PRECIPITATION OR FOG.

+ - STATION NOT QUALITY CONTROLLED BY THE NATIONAL WEATHER SERVICE.
    USE DATA WITH CAUTION...ESPECIALLY DEWPOINT AND RELATIVE
    HUMIDITY OBSERVATIONS.


INZ030>032-037>040-046>048-054>057-064-065-070800-
CENTRAL INDIANA
  
CITY           SKY/WX    TMP DP  RH WIND       PRES   REMARKS
ANDERSON       PTCLDY    71  64  80 E8        30.01S                  
FISHERS *+     CLOUDY   N/A N/A N/A E7        29.99S                  
FRANKFORT +    MOCLDY    73  68  83 E9        29.98F                  
GREENWOOD *+   PTCLDY    75  73  94 E5        29.99S                  
INDIANAPOLIS   CLOUDY    77  70  79 E9        29.97F                  
-EAGLE CREEK   CLOUDY    78  71  79 E7        29.97F                  
KOKOMO +       MOCLDY    70  32  24 E7        30.01F                  
MT COMFORT *+  CLOUDY    73  73 100 NE5       30.00S                  
SHELBYVILLE    PTCLDY    75  71  87 NE5       29.97S                  
ZIONSVILLE +   MOCLDY    72  68  88 E5        30.00S                  

$$


SKY/WX - Weather  TMP - Temperature  DP - Dew Point  RH - Humidity
WIND - Wind Direction/Speed PRES - Barometric Pressure VSB - Visibility
WCI - Wind Chill Index E13G22 Wind - East Wind 13 mph/Gusts of 22 mph

Trending Headlines

Sims Radar Loop



Sims Quick Facts


National Two Day Weather Forecast


E-mail the Sims Weather Forecast

Voice your opinion or tell us about page issues...